Showing default

YUNYAO-1 48, 63349

Orbit data source: Space-Track

YUNYAO-1 48, 63349 is a payload satellite owned by Yunyao yuhang (CN) in SSO that was launched on Fri, 21 Mar 2025 UTC via a GUSHENXING 1 launch vehicle from the Jiuquan Satellite Launch Center, China (JSC). Payload-class satellites include a variety of spacecraft equipped with specific instruments for various scientific and technological missions. These include communications satellites like Starlink; space stations such as the ISS; scientific satellites like the Hubble; Earth observation satellites from companies like Planet Labs, Umbra, and HawkEye 360; GPS; miniature CubeSats for education and research; and military/defense satellites.

Loading next visibility...
Identifier
63349, 2025-059F
Orbit
SSO
Last TLE update
7 hours ago
Origin
Manufacturer
Changguang WJ
Mission
Operational spacecraft
Bus & Motor
YY-1, Unknown motor
Mass
~50 kg wet, ~50 kg dry
Launch date (UTC)
2025-03-21 (3 months ago)
Launch vehicle
GUSHENXING 1
Launch site
Jiuquan Satellite Launch Center, China (JSC)
Object type
Payload
Rocket body
Debris
Shape & HBR
Unknown
Radar Cross Section
Medium (>0.1 m² and <1 m²)

Expand to show TLE details & history

TLE from 7 hours ago
0 YUNYAO-1 48
1 63349U 25059F   25181.79371586  .00002070  00000-0  13816-3 0  9990
2 63349  97.6000   1.0809 0014997 284.5585  75.3980 15.08073598 15288
Epoch: 2025-06-30T19:02Z
TLE epoch observation values (Epoch: 2025-06-30T19:02:57.05Z)
Latitude
0.00003°
Longitude
156.24477°
Altitude
542.553 km
Speed
7.592 km/s
True Right ascension
00h 04m 19s
True Declination
0° 00' 00"
Sunlit
Object was in daylight at epoch
Visualization orbit readout
Latitude
5.95386°
Longitude
-22.6681°
Altitude
548.049 km
Speed
7.587 km/s
Apparent Right ascension
09h 27m 59s
Apparent Declination
-46° 20' 49"
Sunlit
Object is in daylight
Visualization observer readout
Local Sidereal Time
13:48:26
Azimuth
220.186° SW
Elevation
-13.972°
Doppler factor
1
Orbital elements
Apogee altitude
549.451 km
Perigee altitude
528.703 km
Semi-major axis
6,917.214 km
Eccentricity
0.0015
Inclination
97.6°
RAAN
1.0809°
Arg. of periapsis
284.5585°
True anomaly
Unknown
Mean anomaly
75.398°
Eccentric anomaly
Unknown
Mean motion
3.77265 °/min
Orbital period
95.42 mins
BSTAR
0.00013816
Loading maneuver chart data...
Loading SW <> Apogee altitude chart data...
Loading historical data...
Loading historical data...
Loading historical data...
Loading historical data...
Loading historical data...
Loading historical data...
Loading historical data...
Other satellites on launch #59 in the year 2025 (2025-03-21 UTC)

YUNYAO-1 48 Visibility forecast

Observer location: undefined°, undefined°

Span
Click to sort rows by Start time (UTC) header in descending order
Start Az.
Max El. time (UTC)
Max El. Az.
Max El.
End time (UTC)
End Az.
5 mins2025-07-01 11:07:20.785Z113.201° SE2025-07-01 11:10:20.785Z58.377° ENE19.083°2025-07-01 11:12:20.785Z24.84° NE
5 mins2025-07-01 12:42:20.785Z220.344° SW2025-07-01 12:44:20.785Z265.44° W24.302°2025-07-01 12:47:20.785Z320.361° NNW
5 mins2025-07-02 00:18:20.785Z49.695° ENE2025-07-02 00:20:20.785Z102.753° ESE28.584°2025-07-02 00:23:20.785Z159.991° S
|